Zurück zum Katalog

BREEZE-M DEB

TANK

AktivHEO
NORAD 34712·DEBRIS·🇷🇺 Russia

Gestartet Apr 3, 2009 von Baikonur Cosmodrome

Loading…

Nächste Überflüge (nächste 24 Stunden)

TLE

AktuellSource: Space-Track

Epoche: Sep 14, 2026, 03:24 UTC

1 34712U 09016C   26257.14218580  .00001325  00000-0  53071-3 0  9994
2 34712  45.9445 160.6765 4906143 339.7740   6.1542  5.69371972348564

Verfolge BREEZE-M DEB in Echtzeit mit AllMySat

Download on the App Store